Shirley, NY

2:39 AM EDT on April 26, 2017 (GMT -0400)
Brookhaven

Weather History for KHWV - February, 2013

Change the Weather History Date:

Thursday, February 14, 2013

  Actual Average (KISP) Record (KISP)
Temperature  
Mean Temperature 34 °F -  
Max Temperature 44 °F 38 °F 60 °F (1990)
Min Temperature 23 °F 23 °F 0 °F (2016)
Degree Days  
Heating Degree Days 32    
Moisture  
Dew Point 27 °F    
Average Humidity 80    
Maximum Humidity 100    
Minimum Humidity 37    
Precipitation  
Precipitation 0.04 in - - ()
Sea Level Pressure  
Sea Level Pressure 29.86 in    
Wind  
Wind Speed 6 mph (NW)    
Max Wind Speed 9 mph    
Max Gust Speed -    
Visibility 6 miles    
Events Fog , Snow    
Averages and records for this station are not official NWS values.
T = Trace of Precipitation, MM = Missing Value Source: NWS Daily Summary

Daily Weather History Graph

Daily Weather History Graph

Search for Another Location

Airport or City:

Trip Planner

Search our weather history database for the weather conditions in past years. The results will help you decide how hot, cold, wet, or windy it might be!

Date:

Astronomy

Feb. 14, 2013 Rise Set
Actual Time 6:46 AM EST 5:25 PM EST
Civil Twilight 6:18 AM EST 5:53 PM EST
Nautical Twilight 5:46 AM EST 6:25 PM EST
Astronomical Twilight 5:14 AM EST 6:57 PM EST
Moon 8:44 AM EST (2/14) 10:27 PM EST (2/14)
Length of Visible Light 11h 35m
Length of Day
10h 38m
Waxing Crescent, 21% of the Moon is Illuminated
Feb 14
Waxing Crescent
Feb 17
First Quarter
Feb 25
Full
Mar 4
Last Quarter
Mar 11
New

Hourly Weather History & Observations

Time (EST) Temp. Windchill Dew Point Humidity Pressure Visibility Wind Dir Wind Speed Gust Speed Precip Events Conditions
12:08 AM 33.8 °F 27.0 °F 28.4 °F 81% 29.70 in 1.5 mi North 8.1 mph - 0.00 in Snow Light Snow
12:27 AM 33.8 °F 28.6 °F 28.4 °F 81% 29.71 in 1.5 mi North 5.8 mph - 0.02 in Snow Light Snow
12:33 AM 33.8 °F 27.0 °F 28.4 °F 81% 29.71 in 1.8 mi North 8.1 mph - 0.02 in Snow Light Snow
12:39 AM 33.8 °F 27.0 °F 30.2 °F 87% 29.71 in 2.0 mi North 8.1 mph - 0.02 in Snow Light Snow
12:47 AM 33.8 °F 27.0 °F 30.2 °F 87% 29.71 in 1.8 mi North 8.1 mph - 0.03 in Snow Light Snow
12:56 AM 33.1 °F 27.7 °F 30.0 °F 89% 29.71 in 1.5 mi North 5.8 mph - 0.03 in Snow Light Snow
1:11 AM 33.8 °F 28.6 °F 30.2 °F 87% 29.71 in 2.5 mi North 5.8 mph - 0.00 in Snow Light Snow
1:53 AM 33.8 °F 28.6 °F 30.2 °F 87% 29.72 in 4.0 mi NNE 5.8 mph - 0.01 in Snow Light Snow
1:56 AM 34.0 °F 28.8 °F 30.9 °F 89% 29.73 in 5.0 mi North 5.8 mph - 0.01 in Snow Light Snow
2:56 AM 34.0 °F 27.2 °F 30.9 °F 89% 29.73 in 10.0 mi North 8.1 mph - 0.00 in   Overcast
3:35 AM 33.8 °F 28.6 °F 30.2 °F 87% 29.75 in 10.0 mi North 5.8 mph - N/A   Mostly Cloudy
3:56 AM 33.1 °F 25.5 °F 30.0 °F 89% 29.77 in 10.0 mi NNW 9.2 mph - N/A   Overcast
4:05 AM 33.8 °F 27.7 °F 30.2 °F 87% 29.78 in 10.0 mi NNW 6.9 mph - N/A   Overcast
4:56 AM 30.9 °F 26.2 °F 28.0 °F 89% 29.79 in 10.0 mi NNW 4.6 mph - N/A   Clear
5:40 AM 26.6 °F 21.2 °F 24.8 °F 93% 29.81 in 2.0 mi NW 4.6 mph - N/A   Clear
5:49 AM 28.4 °F 24.6 °F 24.8 °F 86% 29.81 in 5.0 mi NW 3.5 mph - N/A   Clear
5:56 AM 28.9 °F - 26.1 °F 89% 29.82 in 5.0 mi Calm Calm - N/A   Clear
6:33 AM 24.8 °F 20.5 °F 24.8 °F 100% 29.83 in 0.5 mi WNW 3.5 mph - N/A Fog Light Freezing Fog
6:40 AM 23.0 °F 17.0 °F 21.2 °F 93% 29.84 in 0.2 mi WNW 4.6 mph - N/A Fog Light Freezing Fog
6:48 AM 23.0 °F 15.8 °F 21.2 °F 93% 29.85 in 0.2 mi West 5.8 mph - N/A Fog Light Freezing Fog
6:56 AM 25.0 °F 19.3 °F 21.9 °F 88% 29.86 in 1.0 mi WNW 4.6 mph - N/A   Clear
7:06 AM 24.8 °F 17.9 °F 23.0 °F 93% 29.86 in 0.8 mi NW 5.8 mph - N/A   Clear
7:11 AM 24.8 °F 19.1 °F 23.0 °F 93% 29.86 in 2.5 mi WNW 4.6 mph - N/A   Clear
7:24 AM 26.6 °F 21.2 °F 24.8 °F 93% 29.87 in 1.2 mi WNW 4.6 mph - N/A   Clear
7:36 AM 26.6 °F 21.2 °F 26.6 °F 100% 29.88 in 3.0 mi WNW 4.6 mph - N/A   Clear
7:56 AM 28.9 °F 21.9 °F 28.0 °F 96% 29.90 in 7.0 mi WNW 6.9 mph - N/A   Clear
8:56 AM 33.1 °F 26.9 °F 30.9 °F 92% 29.92 in 10.0 mi WNW 6.9 mph - N/A   Clear
10:56 AM 39.0 °F 34.0 °F 25.0 °F 57% 29.95 in 10.0 mi NNW 6.9 mph - N/A   Clear
11:56 AM 41.0 °F 36.4 °F 21.9 °F 47% 29.95 in 10.0 mi NW 6.9 mph - N/A   Clear
12:56 PM 41.0 °F 37.1 °F 21.0 °F 45% 29.94 in 10.0 mi NNW 5.8 mph - N/A   Clear
1:56 PM 43.0 °F 41.3 °F 21.0 °F 42% 29.94 in 10.0 mi NW 3.5 mph - N/A   Clear
2:56 PM 44.1 °F - 19.0 °F 37% 29.95 in 10.0 mi Calm Calm - N/A   Clear
3:56 PM 41.0 °F 35.8 °F 24.1 °F 51% 29.97 in 10.0 mi SW 8.1 mph - N/A   Clear
4:56 PM 39.9 °F 34.5 °F 26.1 °F 58% 29.99 in 10.0 mi SSW 8.1 mph - N/A   Clear
5:56 PM 37.9 °F 34.4 °F 26.1 °F 62% 30.00 in 10.0 mi South 4.6 mph - N/A   Clear
6:56 PM 33.1 °F - 24.1 °F 70% 30.01 in 10.0 mi Calm Calm - N/A   Clear
7:56 PM 30.9 °F - 24.1 °F 76% 30.01 in 10.0 mi Calm Calm - N/A   Clear
8:56 PM 30.0 °F - 24.1 °F 79% 30.01 in 8.0 mi Calm Calm - N/A   Clear
9:56 PM 32.0 °F 28.7 °F 27.0 °F 82% 30.03 in 8.0 mi SSW 3.5 mph - N/A   Scattered Clouds
10:09 PM 33.8 °F - 28.4 °F 81% 30.02 in 9.0 mi Calm Calm - N/A   Mostly Cloudy
10:35 PM 33.8 °F 30.8 °F 28.4 °F 81% 30.02 in 9.0 mi SSW 3.5 mph - N/A   Scattered Clouds
10:56 PM 37.9 °F 35.5 °F 33.1 °F 83% 30.02 in 8.0 mi SSW 3.5 mph - N/A   Clear
11:56 PM 34.0 °F 31.0 °F 30.9 °F 89% 30.01 in 5.0 mi South 3.5 mph - N/A   Partly Cloudy